owner,sensor,date,latitude,longitude,vertical_datum,wind_speed,wind_to_direction,wind_speed_of_gust,qcFlag 
DISL,ioos:station:DISL:MHPA:1,2015-06-01T00:00:00Z,30.6671,-87.9365,8.5,4.62,201.5,-9999.0,'1111122,1111122,1111122' 
DISL,ioos:station:DISL:MHPA:1,2015-06-01T00:30:00Z,30.6671,-87.9365,8.5,5.28,213.1,-9999.0,'1111122,1111122,1111122' 
DISL,ioos:station:DISL:MHPA:1,2015-06-01T01:00:00Z,30.6671,-87.9365,8.5,4.13,225.7,-9999.0,'1111122,1111122,1111122' 
DISL,ioos:station:DISL:MHPA:1,2015-06-01T01:30:00Z,30.6671,-87.9365,8.5,4.18,239.8,-9999.0,'1111122,1111122,1111122' 
DISL,ioos:station:DISL:MHPA:1,2015-06-01T02:00:00Z,30.6671,-87.9365,8.5,3.52,243.6,-9999.0,'1111122,1111122,1111122' 
DISL,ioos:station:DISL:MHPA:1,2015-06-01T02:30:00Z,30.6671,-87.9365,8.5,2.1,271.2,-9999.0,'1111122,1111122,1111122' 
DISL,ioos:station:DISL:MHPA:1,2015-06-01T03:00:00Z,30.6671,-87.9365,8.5,3.48,346.5,-9999.0,'1111122,1111122,1111122' 
DISL,ioos:station:DISL:MHPA:1,2015-06-01T03:30:00Z,30.6671,-87.9365,8.5,2.0,9.47,-9999.0,'1111122,1111122,1111122' 
DISL,ioos:station:DISL:MHPA:1,2015-06-01T04:00:00Z,30.6671,-87.9365,8.5,1.99,56.67,-9999.0,'1111122,1111122,1111122' 
DISL,ioos:station:DISL:MHPA:1,2015-06-01T04:30:00Z,30.6671,-87.9365,8.5,1.73,47.49,-9999.0,'1111122,1111122,1111122' 
DISL,ioos:station:DISL:MHPA:1,2015-06-01T05:00:00Z,30.6671,-87.9365,8.5,1.08,58.8,-9999.0,'1111122,1111122,1111122' 
DISL,ioos:station:DISL:MHPA:1,2015-06-01T05:30:00Z,30.6671,-87.9365,8.5,1.32,89.5,-9999.0,'1111122,1111122,1111122' 
DISL,ioos:station:DISL:MHPA:1,2015-06-01T06:00:00Z,30.6671,-87.9365,8.5,1.3,104.9,-9999.0,'1111122,1111122,1111122' 
DISL,ioos:station:DISL:MHPA:1,2015-06-01T06:30:00Z,30.6671,-87.9365,8.5,1.93,145.4,-9999.0,'1111122,1111122,1111122' 
DISL,ioos:station:DISL:MHPA:1,2015-06-01T07:00:00Z,30.6671,-87.9365,8.5,1.4,84.8,-9999.0,'1111122,1111122,1111122' 
DISL,ioos:station:DISL:MHPA:1,2015-06-01T07:30:00Z,30.6671,-87.9365,8.5,1.35,39.12,-9999.0,'1111122,1111122,1111122' 
DISL,ioos:station:DISL:MHPA:1,2015-06-01T08:00:00Z,30.6671,-87.9365,8.5,1.31,64.08,-9999.0,'1111122,1111122,1111122' 
DISL,ioos:station:DISL:MHPA:1,2015-06-01T08:30:00Z,30.6671,-87.9365,8.5,1.82,59.16,-9999.0,'1111122,1111122,1111122' 
DISL,ioos:station:DISL:MHPA:1,2015-06-01T09:00:00Z,30.6671,-87.9365,8.5,0.89,50.16,-9999.0,'1111122,1111122,1111122' 
DISL,ioos:station:DISL:MHPA:1,2015-06-01T09:30:00Z,30.6671,-87.9365,8.5,1.69,47.58,-9999.0,'1111122,1111122,1111122' 
DISL,ioos:station:DISL:MHPA:1,2015-06-01T10:00:00Z,30.6671,-87.9365,8.5,0.95,2.117,-9999.0,'1111122,1111122,1111122' 
DISL,ioos:station:DISL:MHPA:1,2015-06-01T10:30:00Z,30.6671,-87.9365,8.5,2.24,78.05,-9999.0,'1111122,1111122,1111122' 
DISL,ioos:station:DISL:MHPA:1,2015-06-01T11:00:00Z,30.6671,-87.9365,8.5,2.12,80.6,-9999.0,'1111122,1111122,1111122' 
DISL,ioos:station:DISL:MHPA:1,2015-06-01T11:30:00Z,30.6671,-87.9365,8.5,1.93,68.84,-9999.0,'1111122,1111122,1111122' 
DISL,ioos:station:DISL:MHPA:1,2015-06-01T12:00:00Z,30.6671,-87.9365,8.5,1.87,356.9,-9999.0,'1111122,1111122,1111122' 
DISL,ioos:station:DISL:MHPA:1,2015-06-01T12:30:00Z,30.6671,-87.9365,8.5,1.43,166.5,-9999.0,'1111122,1111122,1111122' 
DISL,ioos:station:DISL:MHPA:1,2015-06-01T13:00:00Z,30.6671,-87.9365,8.5,0.4,134.9,-9999.0,'1111122,1111122,1111122' 
DISL,ioos:station:DISL:MHPA:1,2015-06-01T13:30:00Z,30.6671,-87.9365,8.5,1.09,135.0,-9999.0,'1111122,1111122,1111122' 
DISL,ioos:station:DISL:MHPA:1,2015-06-01T14:00:00Z,30.6671,-87.9365,8.5,2.19,112.2,-9999.0,'1111122,1111122,1111122' 
DISL,ioos:station:DISL:MHPA:1,2015-06-01T14:30:00Z,30.6671,-87.9365,8.5,1.47,132.2,-9999.0,'1111122,1111122,1111122' 
DISL,ioos:station:DISL:MHPA:1,2015-06-01T15:00:00Z,30.6671,-87.9365,8.5,1.03,241.2,-9999.0,'1111122,1111122,1111122' 
DISL,ioos:station:DISL:MHPA:1,2015-06-01T15:30:00Z,30.6671,-87.9365,8.5,1.04,231.9,-9999.0,'1111122,1111122,1111122' 
DISL,ioos:station:DISL:MHPA:1,2015-06-01T16:00:00Z,30.6671,-87.9365,8.5,1.25,177.2,-9999.0,'1111122,1111122,1111122' 
DISL,ioos:station:DISL:MHPA:1,2015-06-01T16:30:00Z,30.6671,-87.9365,8.5,1.41,199.2,-9999.0,'1111122,1111122,1111122' 
DISL,ioos:station:DISL:MHPA:1,2015-06-01T17:00:00Z,30.6671,-87.9365,8.5,2.07,190.8,-9999.0,'1111122,1111122,1111122' 
DISL,ioos:station:DISL:MHPA:1,2015-06-01T17:30:00Z,30.6671,-87.9365,8.5,3.03,212.2,-9999.0,'1111122,1111122,1111122' 
DISL,ioos:station:DISL:MHPA:1,2015-06-01T18:00:00Z,30.6671,-87.9365,8.5,1.74,235.4,-9999.0,'1111122,1111122,1111122' 
DISL,ioos:station:DISL:MHPA:1,2015-06-01T18:30:00Z,30.6671,-87.9365,8.5,0.46,116.4,-9999.0,'1111122,1111122,1111122' 
DISL,ioos:station:DISL:MHPA:1,2015-06-01T19:00:00Z,30.6671,-87.9365,8.5,3.61,79.01,-9999.0,'1111122,1111122,1111122' 
DISL,ioos:station:DISL:MHPA:1,2015-06-01T19:30:00Z,30.6671,-87.9365,8.5,2.77,75.4,-9999.0,'1111122,1111122,1111122' 
DISL,ioos:station:DISL:MHPA:1,2015-06-01T20:00:00Z,30.6671,-87.9365,8.5,2.18,65.17,-9999.0,'1111122,1111122,1111122' 
DISL,ioos:station:DISL:MHPA:1,2015-06-01T20:30:00Z,30.6671,-87.9365,8.5,3.34,130.5,-9999.0,'1111122,1111122,1111122' 
DISL,ioos:station:DISL:MHPA:1,2015-06-01T21:00:00Z,30.6671,-87.9365,8.5,2.78,117.9,-9999.0,'1111122,1111122,1111122' 
DISL,ioos:station:DISL:MHPA:1,2015-06-01T21:30:00Z,30.6671,-87.9365,8.5,2.02,8.69,-9999.0,'1111122,1111122,1111122' 
DISL,ioos:station:DISL:MHPA:1,2015-06-01T22:00:00Z,30.6671,-87.9365,8.5,1.55,87.6,-9999.0,'1111122,1111122,1111122' 
DISL,ioos:station:DISL:MHPA:1,2015-06-01T22:30:00Z,30.6671,-87.9365,8.5,1.47,171.2,-9999.0,'1111122,1111122,1111122' 
DISL,ioos:station:DISL:MHPA:1,2015-06-01T23:00:00Z,30.6671,-87.9365,8.5,1.61,149.4,-9999.0,'1111122,1111122,1111122' 
DISL,ioos:station:DISL:MHPA:1,2015-06-01T23:30:00Z,30.6671,-87.9365,8.5,2.06,150.9,-9999.0,'1111122,1111122,1111122' 
DISL,ioos:station:DISL:MHPA:1,2015-06-02T00:00:00Z,30.6671,-87.9365,8.5,0.76,128.6,-9999.0,'1111122,1111122,1111122' 
DISL,ioos:station:DISL:MHPA:1,2015-06-02T00:30:00Z,30.6671,-87.9365,8.5,0.91,168.3,-9999.0,'1111122,1111122,1111122' 
DISL,ioos:station:DISL:MHPA:1,2015-06-02T01:00:00Z,30.6671,-87.9365,8.5,0.87,74.2,-9999.0,'1111122,1111122,1111122' 
DISL,ioos:station:DISL:MHPA:1,2015-06-02T01:30:00Z,30.6671,-87.9365,8.5,0.73,19.84,-9999.0,'1111122,1111122,1111122' 
DISL,ioos:station:DISL:MHPA:1,2015-06-02T02:00:00Z,30.6671,-87.9365,8.5,1.0,35.23,-9999.0,'1111122,1111122,1111122' 
DISL,ioos:station:DISL:MHPA:1,2015-06-02T02:30:00Z,30.6671,-87.9365,8.5,0.28,43.24,-9999.0,'1111122,1111122,1111122' 
DISL,ioos:station:DISL:MHPA:1,2015-06-02T03:00:00Z,30.6671,-87.9365,8.5,1.35,101.7,-9999.0,'1111122,1111122,1111122' 
DISL,ioos:station:DISL:MHPA:1,2015-06-02T03:30:00Z,30.6671,-87.9365,8.5,1.49,71.85,-9999.0,'1111122,1111122,1111122' 
DISL,ioos:station:DISL:MHPA:1,2015-06-02T04:00:00Z,30.6671,-87.9365,8.5,0.83,70.27,-9999.0,'1111122,1111122,1111122' 
DISL,ioos:station:DISL:MHPA:1,2015-06-02T04:30:00Z,30.6671,-87.9365,8.5,0.43,8.14,-9999.0,'1111122,1111122,1111122' 
DISL,ioos:station:DISL:MHPA:1,2015-06-02T05:00:00Z,30.6671,-87.9365,8.5,0.84,43.66,-9999.0,'1111122,1111122,1111122' 
DISL,ioos:station:DISL:MHPA:1,2015-06-02T05:30:00Z,30.6671,-87.9365,8.5,1.02,87.1,-9999.0,'1111122,1111122,1111122' 
DISL,ioos:station:DISL:MHPA:1,2015-06-02T06:00:00Z,30.6671,-87.9365,8.5,1.82,72.93,-9999.0,'1111122,1111122,1111122' 
DISL,ioos:station:DISL:MHPA:1,2015-06-02T06:30:00Z,30.6671,-87.9365,8.5,2.42,77.46,-9999.0,'1111122,1111122,1111122' 
DISL,ioos:station:DISL:MHPA:1,2015-06-02T07:00:00Z,30.6671,-87.9365,8.5,1.65,55.1,-9999.0,'1111122,1111122,1111122' 
DISL,ioos:station:DISL:MHPA:1,2015-06-02T07:30:00Z,30.6671,-87.9365,8.5,1.74,77.38,-9999.0,'1111122,1111122,1111122' 
DISL,ioos:station:DISL:MHPA:1,2015-06-02T08:00:00Z,30.6671,-87.9365,8.5,0.4,335.8,-9999.0,'1111122,1111122,1111122' 
DISL,ioos:station:DISL:MHPA:1,2015-06-02T08:30:00Z,30.6671,-87.9365,8.5,0.98,14.6,-9999.0,'1111122,1111122,1111122' 
DISL,ioos:station:DISL:MHPA:1,2015-06-02T09:00:00Z,30.6671,-87.9365,8.5,0.58,58.69,-9999.0,'1111122,1111122,1111122' 
DISL,ioos:station:DISL:MHPA:1,2015-06-02T09:30:00Z,30.6671,-87.9365,8.5,0.71,42.64,-9999.0,'1111122,1111122,1111122' 
DISL,ioos:station:DISL:MHPA:1,2015-06-02T10:00:00Z,30.6671,-87.9365,8.5,0.71,161.9,-9999.0,'1111122,1111122,1111122' 
DISL,ioos:station:DISL:MHPA:1,2015-06-02T10:30:00Z,30.6671,-87.9365,8.5,0.62,331.3,-9999.0,'1111122,1111122,1111122' 
DISL,ioos:station:DISL:MHPA:1,2015-06-02T11:00:00Z,30.6671,-87.9365,8.5,1.34,357.1,-9999.0,'1111122,1111122,1111122' 
DISL,ioos:station:DISL:MHPA:1,2015-06-02T11:30:00Z,30.6671,-87.9365,8.5,1.75,326.5,-9999.0,'1111122,1111122,1111122' 
DISL,ioos:station:DISL:MHPA:1,2015-06-02T12:00:00Z,30.6671,-87.9365,8.5,1.95,347.4,-9999.0,'1111122,1111122,1111122' 
DISL,ioos:station:DISL:MHPA:1,2015-06-02T12:30:00Z,30.6671,-87.9365,8.5,1.78,23.63,-9999.0,'1111122,1111122,1111122' 
DISL,ioos:station:DISL:MHPA:1,2015-06-02T13:00:00Z,30.6671,-87.9365,8.5,1.65,26.4,-9999.0,'1111122,1111122,1111122' 
DISL,ioos:station:DISL:MHPA:1,2015-06-02T13:30:00Z,30.6671,-87.9365,8.5,1.26,18.72,-9999.0,'1111122,1111122,1111122' 
DISL,ioos:station:DISL:MHPA:1,2015-06-02T14:00:00Z,30.6671,-87.9365,8.5,1.3,41.94,-9999.0,'1111122,1111122,1111122' 
DISL,ioos:station:DISL:MHPA:1,2015-06-02T14:30:00Z,30.6671,-87.9365,8.5,1.28,344.4,-9999.0,'1111122,1111122,1111122' 
DISL,ioos:station:DISL:MHPA:1,2015-06-02T15:00:00Z,30.6671,-87.9365,8.5,1.63,19.01,-9999.0,'1111122,1111122,1111122' 
DISL,ioos:station:DISL:MHPA:1,2015-06-02T15:30:00Z,30.6671,-87.9365,8.5,2.5,340.9,-9999.0,'1111122,1111122,1111122' 
DISL,ioos:station:DISL:MHPA:1,2015-06-02T16:00:00Z,30.6671,-87.9365,8.5,2.82,333.8,-9999.0,'1111122,1111122,1111122' 
DISL,ioos:station:DISL:MHPA:1,2015-06-02T16:30:00Z,30.6671,-87.9365,8.5,2.33,322.8,-9999.0,'1111122,1111122,1111122' 
DISL,ioos:station:DISL:MHPA:1,2015-06-02T17:00:00Z,30.6671,-87.9365,8.5,2.63,337.1,-9999.0,'1111122,1111122,1111122' 
DISL,ioos:station:DISL:MHPA:1,2015-06-02T17:30:00Z,30.6671,-87.9365,8.5,2.34,355.5,-9999.0,'1111122,1111122,1111122' 
DISL,ioos:station:DISL:MHPA:1,2015-06-02T18:00:00Z,30.6671,-87.9365,8.5,2.58,331.8,-9999.0,'1111122,1111122,1111122' 
DISL,ioos:station:DISL:MHPA:1,2015-06-02T18:30:00Z,30.6671,-87.9365,8.5,2.45,327.8,-9999.0,'1111122,1111122,1111122' 
DISL,ioos:station:DISL:MHPA:1,2015-06-02T19:00:00Z,30.6671,-87.9365,8.5,3.16,101.6,-9999.0,'1111122,1111122,1111122' 
DISL,ioos:station:DISL:MHPA:1,2015-06-02T19:30:00Z,30.6671,-87.9365,8.5,2.72,115.7,-9999.0,'1111122,1111122,1111122' 
DISL,ioos:station:DISL:MHPA:1,2015-06-02T20:00:00Z,30.6671,-87.9365,8.5,3.14,122.1,-9999.0,'1111122,1111122,1111122' 
DISL,ioos:station:DISL:MHPA:1,2015-06-02T20:30:00Z,30.6671,-87.9365,8.5,2.03,120.5,-9999.0,'1111122,1111122,1111122' 
DISL,ioos:station:DISL:MHPA:1,2015-06-02T21:00:00Z,30.6671,-87.9365,8.5,1.56,122.1,-9999.0,'1111122,1111122,1111122' 
DISL,ioos:station:DISL:MHPA:1,2015-06-02T21:30:00Z,30.6671,-87.9365,8.5,2.87,203.0,-9999.0,'1111122,1111122,1111122' 
DISL,ioos:station:DISL:MHPA:1,2015-06-02T22:00:00Z,30.6671,-87.9365,8.5,4.06,223.8,-9999.0,'1111122,1111122,1111122' 
DISL,ioos:station:DISL:MHPA:1,2015-06-02T22:30:00Z,30.6671,-87.9365,8.5,3.02,239.7,-9999.0,'1111122,1111122,1111122' 
DISL,ioos:station:DISL:MHPA:1,2015-06-02T23:00:00Z,30.6671,-87.9365,8.5,2.27,229.8,-9999.0,'1111122,1111122,1111122' 
DISL,ioos:station:DISL:MHPA:1,2015-06-02T23:30:00Z,30.6671,-87.9365,8.5,2.89,212.6,-9999.0,'1111122,1111122,1111122' 
DISL,ioos:station:DISL:MHPA:1,2015-06-03T00:00:00Z,30.6671,-87.9365,8.5,4.87,209.7,-9999.0,'1111122,1111122,1111122' 
DISL,ioos:station:DISL:MHPA:1,2015-06-03T00:30:00Z,30.6671,-87.9365,8.5,4.07,201.7,-9999.0,'1111122,1111122,1111122' 
DISL,ioos:station:DISL:MHPA:1,2015-06-03T01:00:00Z,30.6671,-87.9365,8.5,3.08,168.4,-9999.0,'1111122,1111122,1111122' 
DISL,ioos:station:DISL:MHPA:1,2015-06-03T01:30:00Z,30.6671,-87.9365,8.5,1.61,183.3,-9999.0,'1111122,1111122,1111122' 
DISL,ioos:station:DISL:MHPA:1,2015-06-03T02:00:00Z,30.6671,-87.9365,8.5,0.8,130.4,-9999.0,'1111122,1111122,1111122' 
DISL,ioos:station:DISL:MHPA:1,2015-06-03T02:30:00Z,30.6671,-87.9365,8.5,0.42,128.7,-9999.0,'1111122,1111122,1111122' 
DISL,ioos:station:DISL:MHPA:1,2015-06-03T03:00:00Z,30.6671,-87.9365,8.5,0.75,50.32,-9999.0,'1111122,1111122,1111122' 
DISL,ioos:station:DISL:MHPA:1,2015-06-03T03:30:00Z,30.6671,-87.9365,8.5,0.6,58.13,-9999.0,'1111122,1111122,1111122' 
DISL,ioos:station:DISL:MHPA:1,2015-06-03T04:00:00Z,30.6671,-87.9365,8.5,0.82,50.63,-9999.0,'1111122,1111122,1111122' 
DISL,ioos:station:DISL:MHPA:1,2015-06-03T04:30:00Z,30.6671,-87.9365,8.5,0.98,50.53,-9999.0,'1111122,1111122,1111122' 
DISL,ioos:station:DISL:MHPA:1,2015-06-03T05:00:00Z,30.6671,-87.9365,8.5,1.45,163.9,-9999.0,'1111122,1111122,1111122' 
DISL,ioos:station:DISL:MHPA:1,2015-06-03T05:30:00Z,30.6671,-87.9365,8.5,1.1,58.37,-9999.0,'1111122,1111122,1111122' 
DISL,ioos:station:DISL:MHPA:1,2015-06-03T06:00:00Z,30.6671,-87.9365,8.5,1.24,28.0,-9999.0,'1111122,1111122,1111122' 
DISL,ioos:station:DISL:MHPA:1,2015-06-03T06:30:00Z,30.6671,-87.9365,8.5,0.31,248.8,-9999.0,'1111122,1111122,1111122' 
DISL,ioos:station:DISL:MHPA:1,2015-06-03T07:00:00Z,30.6671,-87.9365,8.5,1.54,336.7,-9999.0,'1111122,1111122,1111122' 
DISL,ioos:station:DISL:MHPA:1,2015-06-03T07:30:00Z,30.6671,-87.9365,8.5,1.04,25.82,-9999.0,'1111122,1111122,1111122' 
DISL,ioos:station:DISL:MHPA:1,2015-06-03T08:00:00Z,30.6671,-87.9365,8.5,0.77,13.77,-9999.0,'1111122,1111122,1111122' 
DISL,ioos:station:DISL:MHPA:1,2015-06-03T08:30:00Z,30.6671,-87.9365,8.5,1.25,22.0,-9999.0,'1111122,1111122,1111122' 
DISL,ioos:station:DISL:MHPA:1,2015-06-03T09:00:00Z,30.6671,-87.9365,8.5,1.52,72.03,-9999.0,'1111122,1111122,1111122' 
DISL,ioos:station:DISL:MHPA:1,2015-06-03T09:30:00Z,30.6671,-87.9365,8.5,1.71,96.6,-9999.0,'1111122,1111122,1111122' 
DISL,ioos:station:DISL:MHPA:1,2015-06-03T10:00:00Z,30.6671,-87.9365,8.5,2.14,343.3,-9999.0,'1111122,1111122,1111122' 
DISL,ioos:station:DISL:MHPA:1,2015-06-03T10:30:00Z,30.6671,-87.9365,8.5,1.4,81.1,-9999.0,'1111122,1111122,1111122' 
DISL,ioos:station:DISL:MHPA:1,2015-06-03T11:00:00Z,30.6671,-87.9365,8.5,1.75,85.6,-9999.0,'1111122,1111122,1111122' 
DISL,ioos:station:DISL:MHPA:1,2015-06-03T11:30:00Z,30.6671,-87.9365,8.5,1.88,64.13,-9999.0,'1111122,1111122,1111122' 
DISL,ioos:station:DISL:MHPA:1,2015-06-03T12:00:00Z,30.6671,-87.9365,8.5,1.49,95.7,-9999.0,'1111122,1111122,1111122' 
DISL,ioos:station:DISL:MHPA:1,2015-06-03T12:30:00Z,30.6671,-87.9365,8.5,1.96,29.48,-9999.0,'1111122,1111122,1111122' 
DISL,ioos:station:DISL:MHPA:1,2015-06-03T13:00:00Z,30.6671,-87.9365,8.5,1.32,53.51,-9999.0,'1111122,1111122,1111122' 
DISL,ioos:station:DISL:MHPA:1,2015-06-03T13:30:00Z,30.6671,-87.9365,8.5,1.78,40.75,-9999.0,'1111122,1111122,1111122' 
DISL,ioos:station:DISL:MHPA:1,2015-06-03T14:00:00Z,30.6671,-87.9365,8.5,1.44,8.59,-9999.0,'1111122,1111122,1111122' 
DISL,ioos:station:DISL:MHPA:1,2015-06-03T14:30:00Z,30.6671,-87.9365,8.5,1.41,353.4,-9999.0,'1111122,1111122,1111122' 
DISL,ioos:station:DISL:MHPA:1,2015-06-03T15:00:00Z,30.6671,-87.9365,8.5,1.86,342.1,-9999.0,'1111122,1111122,1111122' 
DISL,ioos:station:DISL:MHPA:1,2015-06-03T15:30:00Z,30.6671,-87.9365,8.5,2.03,289.2,-9999.0,'1111122,1111122,1111122' 
DISL,ioos:station:DISL:MHPA:1,2015-06-03T16:00:00Z,30.6671,-87.9365,8.5,1.88,302.3,-9999.0,'1111122,1111122,1111122' 
DISL,ioos:station:DISL:MHPA:1,2015-06-03T16:30:00Z,30.6671,-87.9365,8.5,2.28,295.1,-9999.0,'1111122,1111122,1111122' 
DISL,ioos:station:DISL:MHPA:1,2015-06-03T17:00:00Z,30.6671,-87.9365,8.5,2.07,321.7,-9999.0,'1111122,1111122,1111122' 
DISL,ioos:station:DISL:MHPA:1,2015-06-03T17:30:00Z,30.6671,-87.9365,8.5,2.16,301.9,-9999.0,'1111122,1111122,1111122' 
DISL,ioos:station:DISL:MHPA:1,2015-06-03T18:00:00Z,30.6671,-87.9365,8.5,1.97,276.9,-9999.0,'1111122,1111122,1111122' 
DISL,ioos:station:DISL:MHPA:1,2015-06-03T18:30:00Z,30.6671,-87.9365,8.5,1.96,287.0,-9999.0,'1111122,1111122,1111122' 
DISL,ioos:station:DISL:MHPA:1,2015-06-03T19:00:00Z,30.6671,-87.9365,8.5,1.98,319.3,-9999.0,'1111122,1111122,1111122' 
DISL,ioos:station:DISL:MHPA:1,2015-06-03T19:30:00Z,30.6671,-87.9365,8.5,1.95,274.5,-9999.0,'1111122,1111122,1111122' 
DISL,ioos:station:DISL:MHPA:1,2015-06-03T20:00:00Z,30.6671,-87.9365,8.5,2.17,274.6,-9999.0,'1111122,1111122,1111122' 
DISL,ioos:station:DISL:MHPA:1,2015-06-03T20:30:00Z,30.6671,-87.9365,8.5,1.75,324.8,-9999.0,'1111122,1111122,1111122' 
DISL,ioos:station:DISL:MHPA:1,2015-06-03T21:00:00Z,30.6671,-87.9365,8.5,1.68,311.9,-9999.0,'1111122,1111122,1111122' 
DISL,ioos:station:DISL:MHPA:1,2015-06-03T21:30:00Z,30.6671,-87.9365,8.5,1.72,282.3,-9999.0,'1111122,1111122,1111122' 
DISL,ioos:station:DISL:MHPA:1,2015-06-03T22:00:00Z,30.6671,-87.9365,8.5,5.44,191.0,-9999.0,'1111122,1111122,1111122' 
DISL,ioos:station:DISL:MHPA:1,2015-06-03T22:30:00Z,30.6671,-87.9365,8.5,5.97,181.9,-9999.0,'1111122,1111122,1111122' 
DISL,ioos:station:DISL:MHPA:1,2015-06-03T23:00:00Z,30.6671,-87.9365,8.5,5.68,181.5,-9999.0,'1111122,1111122,1111122' 
DISL,ioos:station:DISL:MHPA:1,2015-06-03T23:30:00Z,30.6671,-87.9365,8.5,5.44,211.0,-9999.0,'1111122,1111122,1111122' 
DISL,ioos:station:DISL:MHPA:1,2015-06-04T00:00:00Z,30.6671,-87.9365,8.5,4.51,198.6,-9999.0,'1111122,1111122,1111122' 
DISL,ioos:station:DISL:MHPA:1,2015-06-04T00:30:00Z,30.6671,-87.9365,8.5,4.38,191.0,-9999.0,'1111122,1111122,1111122' 
DISL,ioos:station:DISL:MHPA:1,2015-06-04T01:00:00Z,30.6671,-87.9365,8.5,4.29,319.1,-9999.0,'1111122,1111122,1111122' 
DISL,ioos:station:DISL:MHPA:1,2015-06-04T01:30:00Z,30.6671,-87.9365,8.5,3.48,275.6,-9999.0,'1111122,1111122,1111122' 
DISL,ioos:station:DISL:MHPA:1,2015-06-04T02:00:00Z,30.6671,-87.9365,8.5,3.09,267.5,-9999.0,'1111122,1111122,1111122' 
DISL,ioos:station:DISL:MHPA:1,2015-06-04T02:30:00Z,30.6671,-87.9365,8.5,3.21,250.9,-9999.0,'1111122,1111122,1111122' 
DISL,ioos:station:DISL:MHPA:1,2015-06-04T03:00:00Z,30.6671,-87.9365,8.5,1.2,342.5,-9999.0,'1111122,1111122,1111122' 
DISL,ioos:station:DISL:MHPA:1,2015-06-04T03:30:00Z,30.6671,-87.9365,8.5,0.52,334.3,-9999.0,'1111122,1111122,1111122' 
DISL,ioos:station:DISL:MHPA:1,2015-06-04T04:00:00Z,30.6671,-87.9365,8.5,1.03,345.1,-9999.0,'1111122,1111122,1111122' 
DISL,ioos:station:DISL:MHPA:1,2015-06-04T04:30:00Z,30.6671,-87.9365,8.5,3.16,143.5,-9999.0,'1111122,1111122,1111122' 
DISL,ioos:station:DISL:MHPA:1,2015-06-04T05:00:00Z,30.6671,-87.9365,8.5,1.53,83.8,-9999.0,'1111122,1111122,1111122' 
DISL,ioos:station:DISL:MHPA:1,2015-06-04T05:30:00Z,30.6671,-87.9365,8.5,2.08,3.831,-9999.0,'1111122,1111122,1111122' 
DISL,ioos:station:DISL:MHPA:1,2015-06-04T06:00:00Z,30.6671,-87.9365,8.5,1.45,38.75,-9999.0,'1111122,1111122,1111122' 
DISL,ioos:station:DISL:MHPA:1,2015-06-04T06:30:00Z,30.6671,-87.9365,8.5,0.92,13.09,-9999.0,'1111122,1111122,1111122' 
DISL,ioos:station:DISL:MHPA:1,2015-06-04T07:00:00Z,30.6671,-87.9365,8.5,1.14,359.7,-9999.0,'1111122,1111122,1111122' 
DISL,ioos:station:DISL:MHPA:1,2015-06-04T07:30:00Z,30.6671,-87.9365,8.5,1.27,25.61,-9999.0,'1111122,1111122,1111122' 
DISL,ioos:station:DISL:MHPA:1,2015-06-04T08:00:00Z,30.6671,-87.9365,8.5,1.51,10.3,-9999.0,'1111122,1111122,1111122' 
DISL,ioos:station:DISL:MHPA:1,2015-06-04T08:30:00Z,30.6671,-87.9365,8.5,0.79,340.9,-9999.0,'1111122,1111122,1111122' 
DISL,ioos:station:DISL:MHPA:1,2015-06-04T09:00:00Z,30.6671,-87.9365,8.5,1.19,5.987,-9999.0,'1111122,1111122,1111122' 
DISL,ioos:station:DISL:MHPA:1,2015-06-04T09:30:00Z,30.6671,-87.9365,8.5,0.67,52.33,-9999.0,'1111122,1111122,1111122' 
DISL,ioos:station:DISL:MHPA:1,2015-06-04T10:00:00Z,30.6671,-87.9365,8.5,1.02,319.4,-9999.0,'1111122,1111122,1111122' 
DISL,ioos:station:DISL:MHPA:1,2015-06-04T10:30:00Z,30.6671,-87.9365,8.5,1.75,358.8,-9999.0,'1111122,1111122,1111122' 
DISL,ioos:station:DISL:MHPA:1,2015-06-04T11:00:00Z,30.6671,-87.9365,8.5,1.72,356.9,-9999.0,'1111122,1111122,1111122' 
DISL,ioos:station:DISL:MHPA:1,2015-06-04T11:30:00Z,30.6671,-87.9365,8.5,1.75,4.95,-9999.0,'1111122,1111122,1111122' 
DISL,ioos:station:DISL:MHPA:1,2015-06-04T12:00:00Z,30.6671,-87.9365,8.5,2.28,347.7,-9999.0,'1111122,1111122,1111122' 
DISL,ioos:station:DISL:MHPA:1,2015-06-04T12:30:00Z,30.6671,-87.9365,8.5,1.38,346.0,-9999.0,'1111122,1111122,1111122' 
DISL,ioos:station:DISL:MHPA:1,2015-06-04T13:00:00Z,30.6671,-87.9365,8.5,1.55,12.13,-9999.0,'1111122,1111122,1111122' 
DISL,ioos:station:DISL:MHPA:1,2015-06-04T13:30:00Z,30.6671,-87.9365,8.5,2.06,15.25,-9999.0,'1111122,1111122,1111122' 
DISL,ioos:station:DISL:MHPA:1,2015-06-04T14:00:00Z,30.6671,-87.9365,8.5,1.6,7.958,-9999.0,'1111122,1111122,1111122' 
DISL,ioos:station:DISL:MHPA:1,2015-06-04T14:30:00Z,30.6671,-87.9365,8.5,2.15,327.5,-9999.0,'1111122,1111122,1111122' 
DISL,ioos:station:DISL:MHPA:1,2015-06-04T15:00:00Z,30.6671,-87.9365,8.5,2.27,319.2,-9999.0,'1111122,1111122,1111122' 
DISL,ioos:station:DISL:MHPA:1,2015-06-04T15:30:00Z,30.6671,-87.9365,8.5,2.28,320.4,-9999.0,'1111122,1111122,1111122' 
DISL,ioos:station:DISL:MHPA:1,2015-06-04T16:00:00Z,30.6671,-87.9365,8.5,2.72,324.1,-9999.0,'1111122,1111122,1111122' 
DISL,ioos:station:DISL:MHPA:1,2015-06-04T16:30:00Z,30.6671,-87.9365,8.5,2.53,317.2,-9999.0,'1111122,1111122,1111122' 
DISL,ioos:station:DISL:MHPA:1,2015-06-04T17:00:00Z,30.6671,-87.9365,8.5,2.47,320.8,-9999.0,'1111122,1111122,1111122' 
DISL,ioos:station:DISL:MHPA:1,2015-06-04T17:30:00Z,30.6671,-87.9365,8.5,2.44,320.7,-9999.0,'1111122,1111122,1111122' 
DISL,ioos:station:DISL:MHPA:1,2015-06-04T18:00:00Z,30.6671,-87.9365,8.5,2.43,324.0,-9999.0,'1111122,1111122,1111122' 
DISL,ioos:station:DISL:MHPA:1,2015-06-04T18:30:00Z,30.6671,-87.9365,8.5,2.55,334.2,-9999.0,'1111122,1111122,1111122' 
DISL,ioos:station:DISL:MHPA:1,2015-06-04T19:00:00Z,30.6671,-87.9365,8.5,2.92,319.6,-9999.0,'1111122,1111122,1111122' 
DISL,ioos:station:DISL:MHPA:1,2015-06-04T19:30:00Z,30.6671,-87.9365,8.5,2.72,340.1,-9999.0,'1111122,1111122,1111122' 
DISL,ioos:station:DISL:MHPA:1,2015-06-04T20:00:00Z,30.6671,-87.9365,8.5,2.57,349.9,-9999.0,'1111122,1111122,1111122' 
DISL,ioos:station:DISL:MHPA:1,2015-06-04T20:30:00Z,30.6671,-87.9365,8.5,1.77,309.2,-9999.0,'1111122,1111122,1111122' 
DISL,ioos:station:DISL:MHPA:1,2015-06-04T21:00:00Z,30.6671,-87.9365,8.5,2.27,349.5,-9999.0,'1111122,1111122,1111122' 
DISL,ioos:station:DISL:MHPA:1,2015-06-04T21:30:00Z,30.6671,-87.9365,8.5,2.03,327.8,-9999.0,'1111122,1111122,1111122' 
DISL,ioos:station:DISL:MHPA:1,2015-06-04T22:00:00Z,30.6671,-87.9365,8.5,2.43,335.0,-9999.0,'1111122,1111122,1111122' 
DISL,ioos:station:DISL:MHPA:1,2015-06-04T22:30:00Z,30.6671,-87.9365,8.5,2.4,358.4,-9999.0,'1111122,1111122,1111122' 
DISL,ioos:station:DISL:MHPA:1,2015-06-04T23:00:00Z,30.6671,-87.9365,8.5,2.1,7.102,-9999.0,'1111122,1111122,1111122' 
DISL,ioos:station:DISL:MHPA:1,2015-06-04T23:30:00Z,30.6671,-87.9365,8.5,2.17,16.2,-9999.0,'1111122,1111122,1111122' 
DISL,ioos:station:DISL:MHPA:1,2015-06-05T00:00:00Z,30.6671,-87.9365,8.5,2.09,350.2,-9999.0,'1111122,1111122,1111122' 
DISL,ioos:station:DISL:MHPA:1,2015-06-05T00:30:00Z,30.6671,-87.9365,8.5,1.62,7.722,-9999.0,'1111122,1111122,1111122' 
DISL,ioos:station:DISL:MHPA:1,2015-06-05T01:00:00Z,30.6671,-87.9365,8.5,1.19,6.87,-9999.0,'1111122,1111122,1111122' 
DISL,ioos:station:DISL:MHPA:1,2015-06-05T01:30:00Z,30.6671,-87.9365,8.5,0.97,8.92,-9999.0,'1111122,1111122,1111122' 
DISL,ioos:station:DISL:MHPA:1,2015-06-05T02:00:00Z,30.6671,-87.9365,8.5,1.01,9.83,-9999.0,'1111122,1111122,1111122' 
DISL,ioos:station:DISL:MHPA:1,2015-06-05T02:30:00Z,30.6671,-87.9365,8.5,1.14,20.84,-9999.0,'1111122,1111122,1111122' 
DISL,ioos:station:DISL:MHPA:1,2015-06-05T03:00:00Z,30.6671,-87.9365,8.5,1.22,45.69,-9999.0,'1111122,1111122,1111122' 
DISL,ioos:station:DISL:MHPA:1,2015-06-05T03:30:00Z,30.6671,-87.9365,8.5,0.99,46.97,-9999.0,'1111122,1111122,1111122' 
DISL,ioos:station:DISL:MHPA:1,2015-06-05T04:00:00Z,30.6671,-87.9365,8.5,0.94,87.3,-9999.0,'1111122,1111122,1111122' 
DISL,ioos:station:DISL:MHPA:1,2015-06-05T04:30:00Z,30.6671,-87.9365,8.5,0.68,86.7,-9999.0,'1111122,1111122,1111122' 